Location: Katowice
(50.2611°N, 19.0242°E)
Time: 06:02:45
(UTC+02:00)

Vanguard 3 - All Passes

Search period start: 14 October 2019 00:00
Search period end: 24 October 2019 00:00
Orbit: 508 x 3262 km, 33.3° (Epoch: 13 October)

Date Brightness Start Highest point End Pass type
(mag) Time Alt. Az. Time Alt. Az. Time Alt. Az.
14 Oct - 03:26:59 10° SSW 03:29:59 15° SSE 03:33:46 10° SE visible
14 Oct - 05:36:04 10° SW 05:40:49 20° S 05:47:30 10° SE visible
14 Oct - 07:48:16 10° SW 07:52:36 14° SSW 07:57:55 10° S daylight
15 Oct - 04:23:27 10° SW 04:27:10 17° S 04:32:07 10° SE visible
15 Oct - 06:34:05 10° SW 06:38:26 16° SSW 06:44:05 10° SSE visible
16 Oct - 03:11:29 10° SSW 03:13:47 13° SSE 03:16:33 10° SE visible
16 Oct - 05:20:49 10° SW 05:24:34 16° S 05:29:28 10° SSE visible
17 Oct - 04:08:08 10° SSW 04:10:59 14° S 04:14:32 10° SE visible
17 Oct - 06:19:48 10° SSW 06:22:08 11° SSW 06:24:49 10° S visible
18 Oct - 02:56:14 10° S 02:57:39 11° S 02:59:12 10° SSE visible
18 Oct - 05:06:04 10° SSW 05:08:23 12° S 05:11:05 10° SSE visible
19 Oct - 03:53:16 10° SSW 03:54:51 11° S 03:56:38 10° SSE visible
